Volver al catálogo

COSMOS 2298 DEB

ActivoLEO
NORAD 23433·DEBRIS·🇷🇺 Russia

Lanzado Dec 20, 1994 desde Plesetsk Cosmodrome

Loading…

Próximos Pases (próximas 24 horas)

TLE

ActualizadoSource: Space-Track

Época: Sep 14, 2026, 20:15 UTC

1 23433U 94083C   26257.84385593  .00000626  00000-0  18631-3 0  9992
2 23433  74.0048 123.4751 0008977  53.5122  74.2946 14.45213696663055

Sigue COSMOS 2298 DEB en tiempo real con AllMySat

Download on the App Store